,,PA_Meas_PMT16A,,PR_Meas_QMR101_102,,RH_Meas_QMH101,,SR_Meas_QMS101,,TA_Meas_QMH101,,GenWind,,GenWind,
time,status,PA,status,PR,status,RH,status,SR,status,TA,status,DirAvg,status,SpdAvg,
2014-05-07, 00:00:04,VALID,917.739,VALID,0,VALID,94.5532,VALID,0,VALID,22.081,VALID,13,VALID,0.83125,
2014-05-07, 00:01:04,VALID,917.75,VALID,0,VALID,94.5685,VALID,0,VALID,22.0827,VALID,13,VALID,0.787891,
2014-05-07, 00:02:04,VALID,917.701,VALID,0,VALID,94.5685,VALID,0,VALID,22.0225,VALID,342,VALID,0.692187,
2014-05-07, 00:03:04,VALID,917.659,VALID,0,VALID,94.6142,VALID,0,VALID,22.0047,VALID,360,VALID,1.24648,
2014-05-07, 00:04:04,VALID,917.622,VALID,0,VALID,94.7057,VALID,0,VALID,21.964,VALID,6,VALID,1.00547,
2014-05-07, 00:05:04,VALID,917.594,VALID,0,VALID,94.8429,VALID,0,VALID,21.9444,VALID,12,VALID,1.175,
2014-05-07, 00:06:04,VALID,917.585,VALID,0,VALID,94.942,VALID,0,VALID,21.9461,VALID,15,VALID,1.04688,
2014-05-07, 00:07:04,VALID,917.553,VALID,0,VALID,95.0716,VALID,0,VALID,21.964,VALID,21,VALID,1.18945,
2014-05-07, 00:08:04,VALID,917.529,VALID,0,VALID,95.1326,VALID,0,VALID,21.9851,VALID,33,VALID,0.934766,
2014-05-07, 00:09:04,VALID,917.53,VALID,0,VALID,95.1631,VALID,0,VALID,21.9444,VALID,14,VALID,1.17813,
2014-05-07, 00:10:04,VALID,917.531,VALID,0,VALID,95.1783,VALID,0,VALID,21.9249,VALID,17,VALID,1.26094,
2014-05-07, 00:11:04,VALID,917.544,VALID,0,VALID,95.2088,VALID,0,VALID,21.9461,VALID,18,VALID,1.30313,
2014-05-07, 00:12:04,VALID,917.525,VALID,0,VALID,95.2698,VALID,0,VALID,21.9461,VALID,29,VALID,1.10156,
2014-05-07, 00:13:04,VALID,917.545,VALID,0,VALID,95.3384,VALID,0,VALID,21.9249,VALID,29,VALID,1.24922,
2014-05-07, 00:14:04,VALID,917.531,VALID,0,VALID,95.3308,VALID,0,VALID,21.9054,VALID,4,VALID,1.9207,
2014-05-07, 00:15:04,VALID,917.52,VALID,0,VALID,95.3308,VALID,0,VALID,21.8664,VALID,2,VALID,1.40625,
2014-05-07, 00:16:04,VALID,917.519,VALID,0,VALID,95.3537,VALID,0,VALID,21.8469,VALID,344,VALID,1.27148,
2014-05-07, 00:17:04,VALID,917.52,VALID,0,VALID,95.3766,VALID,0,VALID,21.829,VALID,2,VALID,1.1043,
2014-05-07, 00:18:04,VALID,917.501,VALID,0,VALID,95.4299,VALID,0,VALID,21.8079,VALID,355,VALID,1.07383,
2014-05-07, 00:19:04,VALID,917.509,VALID,0,VALID,95.4757,VALID,0,VALID,21.8095,VALID,349,VALID,0.56875,
2014-05-07, 00:20:04,VALID,917.511,VALID,0,VALID,95.5138,VALID,0,VALID,21.829,VALID,349,VALID,0.367188,
2014-05-07, 00:21:04,VALID,917.482,VALID,0,VALID,95.5519,VALID,0,VALID,21.7883,VALID,349,VALID,0.496484,
2014-05-07, 00:22:04,VALID,917.441,VALID,0,VALID,95.5595,VALID,0,VALID,21.7883,VALID,23,VALID,0.719922,
2014-05-07, 00:23:04,VALID,917.461,VALID,0,VALID,95.5748,VALID,0,VALID,21.7688,VALID,23,VALID,0.463281,
2014-05-07, 00:24:04,VALID,917.469,VALID,0,VALID,95.6129,VALID,0,VALID,21.7883,VALID,23,VALID,0.221094,
2014-05-07, 00:25:04,VALID,917.487,VALID,0,VALID,95.6053,VALID,0,VALID,21.7493,VALID,258,VALID,0.910937,
2014-05-07, 00:26:04,VALID,917.507,VALID,0,VALID,95.6281,VALID,0,VALID,21.751,VALID,294,VALID,0.664453,
2014-05-07, 00:27:04,VALID,917.509,VALID,0,VALID,95.6739,VALID,0,VALID,21.7688,VALID,19,VALID,1.15508,
2014-05-07, 00:28:04,VALID,917.537,VALID,0,VALID,95.6815,VALID,0,VALID,21.7493,VALID,16,VALID,0.977344,
2014-05-07, 00:29:04,VALID,917.533,VALID,0,VALID,95.712,VALID,0,VALID,21.7688,VALID,6,VALID,0.910547,
2014-05-07, 00:30:04,VALID,917.487,VALID,0,VALID,95.7272,VALID,0,VALID,21.7688,VALID,342,VALID,1.15156,
2014-05-07, 00:31:04,VALID,917.455,VALID,0,VALID,95.7425,VALID,0,VALID,21.7688,VALID,36,VALID,1.76211,
2014-05-07, 00:32:04,VALID,917.374,VALID,0,VALID,95.7577,VALID,0,VALID,21.7883,VALID,339,VALID,0.623828,
2014-05-07, 00:33:04,VALID,917.361,VALID,0,VALID,95.773,VALID,0,VALID,21.79,VALID,355,VALID,0.891797,
2014-05-07, 00:34:04,VALID,917.346,VALID,0,VALID,95.7806,VALID,0,VALID,21.7917,VALID,343,VALID,1.33945,
2014-05-07, 00:35:04,VALID,917.353,VALID,0,VALID,95.773,VALID,0,VALID,21.7705,VALID,350,VALID,0.639453,
2014-05-07, 00:36:04,VALID,917.327,VALID,0,VALID,95.773,VALID,0,VALID,21.7493,VALID,8,VALID,0.758203,
2014-05-07, 00:37:04,VALID,917.297,VALID,0,VALID,95.7958,VALID,0,VALID,21.751,VALID,321,VALID,0.649219,
2014-05-07, 00:38:04,VALID,917.307,VALID,0,VALID,95.7654,VALID,0,VALID,21.751,VALID,324,VALID,0.544141,
2014-05-07, 00:39:04,VALID,917.272,VALID,0,VALID,95.773,VALID,0,VALID,21.79,VALID,337,VALID,0.621094,
2014-05-07, 00:40:04,VALID,917.266,VALID,0,VALID,95.7806,VALID,0,VALID,21.7883,VALID,3,VALID,0.713672,
2014-05-07, 00:41:04,VALID,917.299,VALID,0,VALID,95.7654,VALID,0,VALID,21.8095,VALID,3,VALID,0.786719,
2014-05-07, 00:42:04,VALID,917.263,VALID,0,VALID,95.773,VALID,0,VALID,21.829,VALID,353,VALID,0.603125,
2014-05-07, 00:43:04,VALID,917.251,VALID,0,VALID,95.7425,VALID,0,VALID,21.8079,VALID,357,VALID,0.705469,
2014-05-07, 00:44:04,VALID,917.242,VALID,0,VALID,95.7196,VALID,0,VALID,21.8485,VALID,331,VALID,0.584375,
2014-05-07, 00:45:04,VALID,917.253,VALID,0,VALID,95.712,VALID,0,VALID,21.8485,VALID,326,VALID,0.336719,
2014-05-07, 00:46:04,VALID,917.265,VALID,0,VALID,95.6967,VALID,0,VALID,21.8469,VALID,326,VALID,0.239844,
2014-05-07, 00:47:04,VALID,917.264,VALID,0,VALID,95.6662,VALID,0,VALID,21.8876,VALID,327,VALID,0.417969,
2014-05-07, 00:48:04,VALID,917.244,VALID,0,VALID,95.6357,VALID,0,VALID,21.8859,VALID,327,VALID,0.135156,
2014-05-07, 00:49:04,VALID,917.272,VALID,0,VALID,95.6053,VALID,0,VALID,21.8876,VALID,327,VALID,0.449219,
2014-05-07, 00:50:04,VALID,917.235,VALID,0,VALID,95.5595,VALID,0,VALID,21.9266,VALID,327,VALID,0.205469,
2014-05-07, 00:51:04,VALID,917.227,VALID,0,VALID,95.5138,VALID,0,VALID,21.9071,VALID,322,VALID,0.600391,
2014-05-07, 00:52:04,VALID,917.156,VALID,0,VALID,95.468,VALID,0,VALID,21.9266,VALID,322,VALID,0.244922,
2014-05-07, 00:53:04,VALID,917.095,VALID,0,VALID,95.4223,VALID,0,VALID,21.9054,VALID,322,VALID,0.257813,
2014-05-07, 00:54:04,VALID,917.092,VALID,0,VALID,95.3613,VALID,0,VALID,21.9478,VALID,322,VALID,0.195313,
2014-05-07, 00:55:04,VALID,917.047,VALID,0,VALID,95.2775,VALID,0,VALID,21.9266,VALID,358,VALID,0.502734,
2014-05-07, 00:56:04,VALID,917.019,VALID,0,VALID,95.2546,VALID,0,VALID,21.9249,VALID,358,VALID,0.875,
2014-05-07, 00:57:04,VALID,916.986,VALID,0,VALID,95.1936,VALID,0,VALID,21.9656,VALID,13,VALID,1.17266,
2014-05-07, 00:58:04,VALID,916.967,VALID,0,VALID,95.125,VALID,0,VALID,21.9249,VALID,13,VALID,1.11602,
2014-05-07, 00:59:04,VALID,916.916,VALID,0,VALID,95.0716,VALID,0,VALID,21.9249,VALID,11,VALID,0.811328,
2014-05-07, 01:00:04,VALID,916.91,VALID,0,VALID,95.0488,VALID,0,VALID,21.9461,VALID,24,VALID,1.1793,
2014-05-07, 01:01:04,VALID,916.918,VALID,0,VALID,94.9801,VALID,0,VALID,21.9461,VALID,27,VALID,1.15078,
2014-05-07, 01:02:04,VALID,916.893,VALID,0,VALID,94.9878,VALID,0,VALID,21.9249,VALID,26,VALID,1.08086,
2014-05-07, 01:03:04,VALID,916.92,VALID,0,VALID,94.9878,VALID,0,VALID,21.9656,VALID,28,VALID,0.658984,
2014-05-07, 01:04:04,VALID,916.922,VALID,0,VALID,94.9801,VALID,0,VALID,21.964,VALID,28,VALID,0.508203,
2014-05-07, 01:05:04,VALID,916.874,VALID,0,VALID,94.9344,VALID,0,VALID,21.9835,VALID,28,VALID,0.522656,
2014-05-07, 01:06:04,VALID,916.914,VALID,0,VALID,94.881,VALID,0,VALID,21.9835,VALID,28,VALID,0.254687,
2014-05-07, 01:07:04,VALID,916.854,VALID,0,VALID,94.7896,VALID,0,VALID,21.9851,VALID,28,VALID,0.195313,
2014-05-07, 01:08:04,VALID,916.872,VALID,0,VALID,94.7057,VALID,0,VALID,21.9656,VALID,28,VALID,0.155078,
2014-05-07, 01:09:04,VALID,916.863,VALID,0,VALID,94.6752,VALID,0,VALID,21.9851,VALID,28,VALID,0.0457031,
2014-05-07, 01:10:04,VALID,916.888,VALID,0,VALID,94.6142,VALID,0,VALID,22.0047,VALID,28,VALID,0.151953,
2014-05-07, 01:11:04,VALID,916.873,VALID,0,VALID,94.5609,VALID,0,VALID,22.0047,VALID,28,VALID,0.394922,
2014-05-07, 01:12:04,VALID,916.859,VALID,0,VALID,94.4541,VALID,0,VALID,22.0242,VALID,28,VALID,0.167969,
2014-05-07, 01:13:04,VALID,916.841,VALID,0,VALID,94.3626,VALID,0,VALID,22.0047,VALID,28,VALID,0.225,
2014-05-07, 01:14:04,VALID,916.86,VALID,0,VALID,94.3321,VALID,0,VALID,22.0242,VALID,28,VALID,0.0117188,
2014-05-07, 01:15:04,VALID,916.822,VALID,0,VALID,94.2635,VALID,0,VALID,22.0242,VALID,28,VALID,0.290234,
2014-05-07, 01:16:04,VALID,916.841,VALID,0,VALID,94.1339,VALID,0,VALID,21.964,VALID,342,VALID,0.605859,
2014-05-07, 01:17:04,VALID,916.879,VALID,0,VALID,94.1034,VALID,0,VALID,21.9461,VALID,342,VALID,0.698438,
2014-05-07, 01:18:04,VALID,916.878,VALID,0,VALID,94.1111,VALID,0,VALID,21.9071,VALID,342,VALID,0.373828,
2014-05-07, 01:19:04,VALID,916.855,VALID,0,VALID,94.2254,VALID,0,VALID,21.8469,VALID,342,VALID,0.276563,
2014-05-07, 01:20:04,VALID,916.864,VALID,0,VALID,94.3017,VALID,0,VALID,21.8681,VALID,342,VALID,0.0347656,
2014-05-07, 01:21:04,VALID,916.844,VALID,0,VALID,94.3855,VALID,0,VALID,21.8681,VALID,342,VALID,0.437891,
2014-05-07, 01:22:04,VALID,916.845,VALID,0,VALID,94.4465,VALID,0,VALID,21.8681,VALID,342,VALID,0.196094,
2014-05-07, 01:23:04,VALID,916.791,VALID,0,VALID,94.416,VALID,0,VALID,21.8485,VALID,342,VALID,0.732813,
2014-05-07, 01:24:04,VALID,916.765,VALID,0,VALID,94.4617,VALID,0,VALID,21.8485,VALID,342,VALID,0.128516,
2014-05-07, 01:25:04,VALID,916.763,VALID,0,VALID,94.5456,VALID,0,VALID,21.8274,VALID,342,VALID,0.610547,
2014-05-07, 01:26:04,VALID,916.732,VALID,0,VALID,94.6218,VALID,0,VALID,21.8681,VALID,358,VALID,0.95625,
2014-05-07, 01:27:04,VALID,916.772,VALID,0,VALID,94.6371,VALID,0,VALID,21.9071,VALID,13,VALID,0.948047,
2014-05-07, 01:28:04,VALID,916.714,VALID,0,VALID,94.6218,VALID,0,VALID,21.9071,VALID,13,VALID,1.03633,
2014-05-07, 01:29:04,VALID,916.73,VALID,0,VALID,94.6142,VALID,0,VALID,21.9071,VALID,13,VALID,1.02773,
2014-05-07, 01:30:04,VALID,916.698,VALID,0,VALID,94.6066,VALID,0,VALID,21.8681,VALID,13,VALID,1.11211,
2014-05-07, 01:31:04,VALID,916.683,VALID,0,VALID,94.66,VALID,0,VALID,21.9071,VALID,13,VALID,0.7875,
2014-05-07, 01:32:04,VALID,916.694,VALID,0,VALID,94.5609,VALID,0,VALID,21.8681,VALID,348,VALID,0.848047,
2014-05-07, 01:33:04,VALID,916.616,VALID,0,VALID,94.599,VALID,0,VALID,21.829,VALID,1,VALID,0.929297,
2014-05-07, 01:34:04,VALID,916.613,VALID,0,VALID,94.7133,VALID,0,VALID,21.829,VALID,1,VALID,0.984766,
2014-05-07, 01:35:04,VALID,916.64,VALID,0,VALID,94.7667,VALID,0,VALID,21.8274,VALID,355,VALID,0.642187,
2014-05-07, 01:36:04,VALID,916.636,VALID,0,VALID,94.7743,VALID,0,VALID,21.8485,VALID,327,VALID,0.500391,
2014-05-07, 01:37:04,VALID,916.613,VALID,0,VALID,94.7514,VALID,0,VALID,21.8485,VALID,312,VALID,0.5,
2014-05-07, 01:38:04,VALID,916.635,VALID,0,VALID,94.7743,VALID,0,VALID,21.8681,VALID,344,VALID,0.106641,
2014-05-07, 01:39:04,VALID,916.637,VALID,0,VALID,94.7591,VALID,0,VALID,21.8485,VALID,345,VALID,0.558984,
2014-05-07, 01:40:04,VALID,916.654,VALID,0,VALID,94.7591,VALID,0,VALID,21.8485,VALID,347,VALID,0.852734,
2014-05-07, 01:41:04,VALID,916.676,VALID,0,VALID,94.7896,VALID,0,VALID,21.8485,VALID,12,VALID,0.863672,
2014-05-07, 01:42:04,VALID,916.675,VALID,0,VALID,94.8124,VALID,0,VALID,21.8485,VALID,12,VALID,0.222266,
2014-05-07, 01:43:04,VALID,916.641,VALID,0,VALID,94.7743,VALID,0,VALID,21.8681,VALID,351,VALID,0.496875,
2014-05-07, 01:44:04,VALID,916.679,VALID,0,VALID,94.7286,VALID,0,VALID,21.8274,VALID,351,VALID,0.539063,
2014-05-07, 01:45:04,VALID,916.7,VALID,0,VALID,94.6981,VALID,0,VALID,21.8095,VALID,351,VALID,0.509766,
2014-05-07, 01:46:04,VALID,916.698,VALID,0,VALID,94.6905,VALID,0,VALID,21.7705,VALID,351,VALID,0.608984,
2014-05-07, 01:47:04,VALID,916.681,VALID,0,VALID,94.7591,VALID,0,VALID,21.79,VALID,351,VALID,0.130078,
2014-05-07, 01:48:04,VALID,916.663,VALID,0,VALID,94.7819,VALID,0,VALID,21.8095,VALID,351,VALID,0.220703,
2014-05-07, 01:49:04,VALID,916.692,VALID,0,VALID,94.8124,VALID,0.107441,VALID,21.8095,VALID,353,VALID,0.661328,
2014-05-07, 01:50:04,VALID,916.704,VALID,0,VALID,94.8277,VALID,0,VALID,21.829,VALID,12,VALID,0.763281,
2014-05-07, 01:51:04,VALID,916.716,VALID,0,VALID,94.8658,VALID,0,VALID,21.8485,VALID,12,VALID,0.394141,
2014-05-07, 01:52:04,VALID,916.718,VALID,0,VALID,94.8963,VALID,0,VALID,21.8876,VALID,12,VALID,0.335547,
2014-05-07, 01:53:04,VALID,916.734,VALID,0,VALID,94.8963,VALID,0,VALID,21.8859,VALID,12,VALID,0.150391,
2014-05-07, 01:54:04,VALID,916.746,VALID,0,VALID,94.8429,VALID,0,VALID,21.9249,VALID,12,VALID,0,
2014-05-07, 01:55:04,VALID,916.739,VALID,0,VALID,94.7667,VALID,0,VALID,21.9249,VALID,12,VALID,0.0347656,
2014-05-07, 01:56:04,VALID,916.767,VALID,0,VALID,94.6676,VALID,0,VALID,21.9478,VALID,12,VALID,0,
2014-05-07, 01:57:04,VALID,916.729,VALID,0,VALID,94.6295,VALID,0,VALID,21.9266,VALID,12,VALID,0.200781,
2014-05-07, 01:58:04,VALID,916.746,VALID,0,VALID,94.599,VALID,0,VALID,21.9461,VALID,12,VALID,0.546875,
2014-05-07, 01:59:04,VALID,916.726,VALID,0,VALID,94.5532,VALID,0,VALID,21.9444,VALID,12,VALID,0.510156,
2014-05-07, 02:00:04,VALID,916.734,VALID,0,VALID,94.5304,VALID,0,VALID,21.9851,VALID,12,VALID,0.771875,
2014-05-07, 02:01:04,VALID,916.678,VALID,0,VALID,94.4389,VALID,0,VALID,21.9656,VALID,12,VALID,0.760938,
2014-05-07, 02:02:04,VALID,916.705,VALID,0,VALID,94.4236,VALID,0,VALID,21.9656,VALID,11,VALID,0.757031,
2014-05-07, 02:03:04,VALID,916.697,VALID,0,VALID,94.3626,VALID,0,VALID,21.9266,VALID,10,VALID,0.899609,
2014-05-07, 02:04:04,VALID,916.676,VALID,0,VALID,94.355,VALID,0,VALID,21.8859,VALID,27,VALID,1.00977,
2014-05-07, 02:05:04,VALID,916.67,VALID,0,VALID,94.4236,VALID,0,VALID,21.8876,VALID,27,VALID,0.767187,
2014-05-07, 02:06:04,VALID,916.697,VALID,0,VALID,94.477,VALID,0,VALID,21.9266,VALID,23,VALID,0.851953,
2014-05-07, 02:07:04,VALID,916.665,VALID,0,VALID,94.4389,VALID,0,VALID,21.9071,VALID,22,VALID,0.834375,
2014-05-07, 02:08:04,VALID,916.666,VALID,0,VALID,94.4694,VALID,0,VALID,21.9266,VALID,22,VALID,0.45625,
2014-05-07, 02:09:04,VALID,916.638,VALID,0,VALID,94.4694,VALID,0,VALID,21.9249,VALID,22,VALID,0.581641,
2014-05-07, 02:10:04,VALID,916.633,VALID,0,VALID,94.4694,VALID,0,VALID,21.9656,VALID,22,VALID,0.554297,
2014-05-07, 02:11:04,VALID,916.639,VALID,0,VALID,94.4541,VALID,0,VALID,21.964,VALID,22,VALID,0.2875,
2014-05-07, 02:12:04,VALID,916.64,VALID,0,VALID,94.4236,VALID,0,VALID,21.964,VALID,22,VALID,0.192969,
2014-05-07, 02:13:04,VALID,916.612,VALID,0,VALID,94.3855,VALID,0,VALID,22.0047,VALID,22,VALID,0.151172,
2014-05-07, 02:14:04,VALID,916.623,VALID,0,VALID,94.3626,VALID,0,VALID,22.003,VALID,22,VALID,0.114063,
2014-05-07, 02:15:04,VALID,916.632,VALID,0,VALID,94.3017,VALID,0,VALID,22.0242,VALID,22,VALID,0.435937,
2014-05-07, 02:16:04,VALID,916.637,VALID,0,VALID,94.2635,VALID,0,VALID,22.0437,VALID,22,VALID,0.621484,
2014-05-07, 02:17:04,VALID,916.623,VALID,0,VALID,94.1187,VALID,0,VALID,22.0047,VALID,22,VALID,0.563672,
2014-05-07, 02:18:04,VALID,916.61,VALID,0,VALID,94.0806,VALID,0,VALID,21.9851,VALID,22,VALID,0.704297,
2014-05-07, 02:19:04,VALID,916.624,VALID,0,VALID,94.1263,VALID,0,VALID,21.9851,VALID,22,VALID,0.226563,
2014-05-07, 02:20:04,VALID,916.587,VALID,0,VALID,94.0958,VALID,0,VALID,21.9656,VALID,22,VALID,0.770312,
2014-05-07, 02:21:04,VALID,916.614,VALID,0,VALID,94.1263,VALID,0,VALID,21.9461,VALID,22,VALID,0.79375,
2014-05-07, 02:22:04,VALID,916.58,VALID,0,VALID,94.1721,VALID,0,VALID,21.9673,VALID,22,VALID,0.814844,
2014-05-07, 02:23:04,VALID,916.563,VALID,0,VALID,94.2483,VALID,0,VALID,21.9266,VALID,22,VALID,0.531641,
2014-05-07, 02:24:04,VALID,916.538,VALID,0,VALID,94.3017,VALID,0,VALID,21.9461,VALID,22,VALID,0.684766,
2014-05-07, 02:25:04,VALID,916.511,VALID,0,VALID,94.355,VALID,0,VALID,21.9444,VALID,22,VALID,0.500781,
2014-05-07, 02:26:04,VALID,916.493,VALID,0,VALID,94.3626,VALID,0,VALID,21.9461,VALID,22,VALID,0.501172,
2014-05-07, 02:27:04,VALID,916.468,VALID,0,VALID,94.3245,VALID,0,VALID,21.9054,VALID,22,VALID,0.146875,
2014-05-07, 02:28:04,VALID,916.436,VALID,0,VALID,94.3474,VALID,0,VALID,21.9266,VALID,22,VALID,0.608594,
2014-05-07, 02:29:04,VALID,916.442,VALID,0,VALID,94.3474,VALID,0,VALID,21.8859,VALID,22,VALID,0.632422,
2014-05-07, 02:30:04,VALID,916.447,VALID,0,VALID,94.4236,VALID,0,VALID,21.9071,VALID,35,VALID,0.927734,
2014-05-07, 02:31:04,VALID,916.414,VALID,0,VALID,94.477,VALID,0,VALID,21.9071,VALID,35,VALID,0.663672,
2014-05-07, 02:32:04,VALID,916.401,VALID,0,VALID,94.4389,VALID,0,VALID,21.9071,VALID,33,VALID,0.688281,
2014-05-07, 02:33:04,VALID,916.393,VALID,0,VALID,94.4999,VALID,0,VALID,21.8859,VALID,34,VALID,0.728516,
2014-05-07, 02:34:04,VALID,916.386,VALID,0,VALID,94.5227,VALID,0,VALID,21.9266,VALID,33,VALID,0.227344,
2014-05-07, 02:35:04,VALID,916.381,VALID,0,VALID,94.5075,VALID,0,VALID,21.9266,VALID,32,VALID,0.70625,
2014-05-07, 02:36:04,VALID,916.348,VALID,0,VALID,94.4617,VALID,0,VALID,21.9266,VALID,32,VALID,0.469141,
2014-05-07, 02:37:04,VALID,916.321,VALID,0,VALID,94.4617,VALID,0,VALID,21.9461,VALID,32,VALID,0.310937,
2014-05-07, 02:38:04,VALID,916.31,VALID,0,VALID,94.4389,VALID,0,VALID,21.9266,VALID,32,VALID,0.372266,
2014-05-07, 02:39:04,VALID,916.258,VALID,0,VALID,94.3703,VALID,0,VALID,21.8859,VALID,32,VALID,0.326562,
2014-05-07, 02:40:04,VALID,916.254,VALID,0,VALID,94.3398,VALID,0,VALID,21.8876,VALID,32,VALID,0.431641,
2014-05-07, 02:41:04,VALID,916.264,VALID,0,VALID,94.4008,VALID,0,VALID,21.9071,VALID,36,VALID,0.848437,
2014-05-07, 02:42:04,VALID,916.29,VALID,0,VALID,94.4389,VALID,0,VALID,21.9071,VALID,36,VALID,0.565625,
2014-05-07, 02:43:04,VALID,916.301,VALID,0,VALID,94.4313,VALID,0,VALID,21.9071,VALID,36,VALID,0.3625,
2014-05-07, 02:44:04,VALID,916.288,VALID,0,VALID,94.3855,VALID,0,VALID,21.9071,VALID,36,VALID,0.664063,
2014-05-07, 02:45:04,VALID,916.277,VALID,0,VALID,94.4008,VALID,0,VALID,21.8876,VALID,31,VALID,0.841797,
2014-05-07, 02:46:04,VALID,916.233,VALID,0,VALID,94.4465,VALID,0,VALID,21.8859,VALID,25,VALID,0.189844,
2014-05-07, 02:47:04,VALID,916.207,VALID,0,VALID,94.3398,VALID,0,VALID,21.8664,VALID,351,VALID,0.901563,
2014-05-07, 02:48:04,VALID,916.201,VALID,0,VALID,94.3169,VALID,0,VALID,21.8485,VALID,8,VALID,1.2918,
2014-05-07, 02:49:04,VALID,916.187,VALID,0,VALID,94.3093,VALID,0,VALID,21.7705,VALID,20,VALID,1.17031,
2014-05-07, 02:50:04,VALID,916.137,VALID,0,VALID,94.4236,VALID,0,VALID,21.7315,VALID,355,VALID,0.584766,
2014-05-07, 02:51:04,VALID,916.102,VALID,0,VALID,94.4922,VALID,0,VALID,21.6908,VALID,351,VALID,0.755469,
2014-05-07, 02:52:04,VALID,916.091,VALID,0,VALID,94.599,VALID,0,VALID,21.6713,VALID,352,VALID,0.286328,
2014-05-07, 02:53:04,VALID,916.091,VALID,0,VALID,94.7057,VALID,0,VALID,21.6924,VALID,352,VALID,0.446875,
2014-05-07, 02:54:04,VALID,916.077,VALID,0,VALID,94.7743,VALID,0,VALID,21.6924,VALID,7,VALID,0.787109,
2014-05-07, 02:55:04,VALID,916.09,VALID,0,VALID,94.8429,VALID,0,VALID,21.6908,VALID,16,VALID,0.719531,
2014-05-07, 02:56:04,VALID,916.141,VALID,0,VALID,94.9192,VALID,0,VALID,21.7103,VALID,17,VALID,0.625781,
2014-05-07, 02:57:04,VALID,916.157,VALID,0,VALID,94.9496,VALID,0,VALID,21.7315,VALID,17,VALID,0.489844,
2014-05-07, 02:58:04,VALID,916.132,VALID,0,VALID,94.9725,VALID,0,VALID,21.751,VALID,17,VALID,0.528906,
2014-05-07, 02:59:04,VALID,916.119,VALID,0,VALID,94.9268,VALID,0,VALID,21.7315,VALID,17,VALID,0.212109,
2014-05-07, 03:00:04,VALID,916.105,VALID,0,VALID,94.8887,VALID,0,VALID,21.7298,VALID,9,VALID,0.275391,
2014-05-07, 03:01:04,VALID,916.049,VALID,0,VALID,94.8353,VALID,0,VALID,21.7298,VALID,348,VALID,0.624609,
2014-05-07, 03:02:04,VALID,916.051,VALID,0,VALID,94.7362,VALID,0,VALID,21.7315,VALID,348,VALID,0.239844,
2014-05-07, 03:03:04,VALID,916.053,VALID,0,VALID,94.7362,VALID,0,VALID,21.751,VALID,348,VALID,0.203906,
2014-05-07, 03:04:04,VALID,916.076,VALID,0,VALID,94.7514,VALID,0,VALID,21.7298,VALID,348,VALID,0.00273437,
2014-05-07, 03:05:04,VALID,916.061,VALID,0,VALID,94.7057,VALID,0,VALID,21.7688,VALID,348,VALID,0.0933594,
2014-05-07, 03:06:04,VALID,916.082,VALID,0,VALID,94.6371,VALID,0,VALID,21.7705,VALID,348,VALID,0.636719,
2014-05-07, 03:07:04,VALID,916.071,VALID,0,VALID,94.5761,VALID,0,VALID,21.7493,VALID,351,VALID,0.742578,
2014-05-07, 03:08:04,VALID,916.065,VALID,0,VALID,94.5761,VALID,0,VALID,21.79,VALID,357,VALID,0.830469,
2014-05-07, 03:09:04,VALID,916.039,VALID,0,VALID,94.5075,VALID,0,VALID,21.7705,VALID,353,VALID,0.395703,
2014-05-07, 03:10:04,VALID,916.042,VALID,0,VALID,94.4541,VALID,0,VALID,21.7705,VALID,353,VALID,0.208984,
2014-05-07, 03:11:04,VALID,916.046,VALID,0,VALID,94.416,VALID,0,VALID,21.7705,VALID,353,VALID,0.575391,
2014-05-07, 03:12:04,VALID,916.062,VALID,0,VALID,94.4389,VALID,0,VALID,21.79,VALID,8,VALID,0.6,
2014-05-07, 03:13:04,VALID,916.093,VALID,0,VALID,94.4465,VALID,0,VALID,21.79,VALID,301,VALID,0.592578,
2014-05-07, 03:14:04,VALID,916.091,VALID,0,VALID,94.416,VALID,0,VALID,21.7493,VALID,291,VALID,0.605859,
2014-05-07, 03:15:04,VALID,916.087,VALID,0,VALID,94.3398,VALID,0,VALID,21.7298,VALID,291,VALID,0.472266,
2014-05-07, 03:16:04,VALID,916.076,VALID,0,VALID,94.416,VALID,0,VALID,21.712,VALID,291,VALID,0.689453,
2014-05-07, 03:17:04,VALID,916.109,VALID,0,VALID,94.3855,VALID,0,VALID,21.6729,VALID,291,VALID,0.202734,
2014-05-07, 03:18:04,VALID,916.049,VALID,0,VALID,94.3931,VALID,0,VALID,21.6729,VALID,291,VALID,0,
2014-05-07, 03:19:04,VALID,916.043,VALID,0,VALID,94.4541,VALID,0,VALID,21.6924,VALID,291,VALID,0,
2014-05-07, 03:20:04,VALID,916.031,VALID,0,VALID,94.4541,VALID,0,VALID,21.6924,VALID,291,VALID,0.117188,
2014-05-07, 03:21:04,VALID,916.031,VALID,0,VALID,94.4236,VALID,0,VALID,21.6924,VALID,291,VALID,0.0339844,
2014-05-07, 03:22:04,VALID,916.01,VALID,0,VALID,94.4313,VALID,0,VALID,21.6924,VALID,291,VALID,0,
2014-05-07, 03:23:04,VALID,916.004,VALID,0,VALID,94.477,VALID,0,VALID,21.7103,VALID,291,VALID,0.00195313,
2014-05-07, 03:24:04,VALID,915.994,VALID,0,VALID,94.4389,VALID,0,VALID,21.7526,VALID,291,VALID,0,
2014-05-07, 03:25:04,VALID,916.035,VALID,0,VALID,94.3779,VALID,0,VALID,21.7315,VALID,291,VALID,0.309766,
2014-05-07, 03:26:04,VALID,916.034,VALID,0,VALID,94.3169,VALID,0,VALID,21.7103,VALID,291,VALID,0.671484,
2014-05-07, 03:27:04,VALID,916.05,VALID,0,VALID,94.3093,VALID,0,VALID,21.6908,VALID,291,VALID,0.760156,
2014-05-07, 03:28:04,VALID,916.056,VALID,0,VALID,94.2788,VALID,0,VALID,21.6729,VALID,291,VALID,0.808984,
2014-05-07, 03:29:04,VALID,916.073,VALID,0,VALID,94.3321,VALID,0,VALID,21.6534,VALID,291,VALID,0.617969,
2014-05-07, 03:30:04,VALID,916.038,VALID,0,VALID,94.4084,VALID,0,VALID,21.6339,VALID,291,VALID,0.664844,
2014-05-07, 03:31:04,VALID,916.02,VALID,0,VALID,94.4846,VALID,0,VALID,21.6339,VALID,291,VALID,0.662109,
2014-05-07, 03:32:04,VALID,916.019,VALID,0,VALID,94.4922,VALID,0,VALID,21.6144,VALID,270,VALID,1.17305,
2014-05-07, 03:33:04,VALID,915.999,VALID,0,VALID,94.5151,VALID,0,VALID,21.5754,VALID,248,VALID,0.924609,
2014-05-07, 03:34:04,VALID,916.02,VALID,0,VALID,94.5532,VALID,0,VALID,21.5754,VALID,248,VALID,0.543359,
2014-05-07, 03:35:04,VALID,916.007,VALID,0,VALID,94.5913,VALID,0,VALID,21.5559,VALID,248,VALID,0.468359,
2014-05-07, 03:36:04,VALID,916.023,VALID,0,VALID,94.6295,VALID,0,VALID,21.5754,VALID,248,VALID,0.1125,
2014-05-07, 03:37:04,VALID,915.982,VALID,0,VALID,94.6828,VALID,0,VALID,21.5949,VALID,248,VALID,0.130469,
2014-05-07, 03:38:04,VALID,915.932,VALID,0,VALID,94.6447,VALID,0,VALID,21.6144,VALID,248,VALID,0.335938,
2014-05-07, 03:39:04,VALID,915.953,VALID,0,VALID,94.6447,VALID,0,VALID,21.6339,VALID,249,VALID,0.560938,
2014-05-07, 03:40:04,VALID,915.938,VALID,0,VALID,94.6828,VALID,0,VALID,21.6534,VALID,252,VALID,0.348437,
2014-05-07, 03:41:04,VALID,915.897,VALID,0,VALID,94.7286,VALID,0,VALID,21.6924,VALID,252,VALID,0.164453,
2014-05-07, 03:42:04,VALID,915.913,VALID,0,VALID,94.6752,VALID,0,VALID,21.6729,VALID,252,VALID,0,
2014-05-07, 03:43:04,VALID,915.918,VALID,0,VALID,94.6218,VALID,0.107441,VALID,21.6518,VALID,252,VALID,0,
2014-05-07, 03:44:04,VALID,915.932,VALID,0,VALID,94.5761,VALID,0,VALID,21.6518,VALID,252,VALID,0.141016,
2014-05-07, 03:45:04,VALID,915.938,VALID,0,VALID,94.5151,VALID,0,VALID,21.6729,VALID,252,VALID,0.210156,
2014-05-07, 03:46:04,VALID,915.936,VALID,0,VALID,94.4922,VALID,0,VALID,21.6534,VALID,252,VALID,0.211719,